Location: Milton Keynes
(52.0316°N, 0.7531°W)
Time: 11:00:16
(UTC+00:00)

ISS - Pass Details

Date: 24 January 2019
Orbit: 403 x 411 km, 51.6° (Epoch: 21 February)

Event Time Altitude Azimuth Distance (km) Brightness Sun altitude
Rises 18:17:23 0° 208° (SSW) 2,326 0.6 -15.3°
Reaches altitude 10° 18:19:53 10° 189° (S) 1,471 -0.7 -15.7°
Maximum altitude 18:22:13 18° 144° (SE) 1,084 -1.9 -16.1°
Enters shadow 18:22:17 18° 142° (SE) 1,085 -1.9 -16.1°
